Tracking 20942 objects as of 15-Jul-2020
HD Live streaming from Space Station
objects crossing your sky now

ARIANE 2 DEB

Track ARIANE 2 DEB now!


NORAD ID: 33551
Int'l Code: 1989-006AT
Perigee: 1,427.0 km
Apogee: 35,633.9 km
Inclination: 9.2 °
Period: 651.8 minutes
Semi major axis: 24901 km
RCS: 0.1256 m2 (medium)
Launch date: January 27, 1989
Source: France (FR)
Launch site: FRENCH GUIANA (FRGUI)

Note: This is SATELLITE DEBRIS
aabbcc
Your satellite tracking list
Your tracking list is empty




NASA's NSSDC Master Catalog

Two Line Element Set (TLE):
1 33551U 89006AT  20193.00903334 -.00000102  00000-0  00000+0 0  9990
2 33551   9.1650  54.6756 6868471 163.3369 358.3579  2.20935947120671
Source of the keplerian elements: AFSPC